Time,TemperatureF,DewpointF,PressureIn,WindDirection,WindDirectionDegrees,WindSpeedMPH,WindSpeedGustMPH,Humidity,HourlyPrecipIn,Conditions,Clouds,dailyrainin,SolarRadiationWatts/m^2,SoftwareType,DateUTC
2013-05-24 00:00:00,68.3,58.0,30.11,North,10,5.0,7.0,69,0.00,,,0.00,0,weatherlink.com 1.10,2013-05-24 05:00:00,
2013-05-24 00:15:00,68.1,58.0,30.12,NE,40,3.0,6.0,70,0.00,,,0.00,0,weatherlink.com 1.10,2013-05-24 05:15:00,
2013-05-24 00:30:00,67.7,58.0,30.12,ENE,62,5.0,11.0,71,0.00,,,0.00,0,weatherlink.com 1.10,2013-05-24 05:30:00,
2013-05-24 00:45:00,67.3,58.0,30.13,NE,43,1.0,8.0,72,0.00,,,0.00,0,weatherlink.com 1.10,2013-05-24 05:45:00,
2013-05-24 01:00:00,66.8,58.0,30.13,North,10,1.0,8.0,73,0.00,,,0.00,0,weatherlink.com 1.10,2013-05-24 06:00:00,
2013-05-24 01:15:00,66.3,57.0,30.12,ENE,70,1.0,8.0,73,0.00,,,0.00,0,weatherlink.com 1.10,2013-05-24 06:15:00,
2013-05-24 01:30:00,65.8,57.0,30.12,NE,51,3.0,6.0,74,0.00,,,0.00,0,weatherlink.com 1.10,2013-05-24 06:30:00,
2013-05-24 01:45:00,65.4,57.0,30.13,NNE,29,4.0,5.0,75,0.00,,,0.00,0,weatherlink.com 1.10,2013-05-24 06:45:00,
2013-05-24 02:00:00,65.0,58.0,30.13,NE,36,0.0,6.0,77,0.00,,,0.00,0,weatherlink.com 1.10,2013-05-24 07:00:00,
2013-05-24 02:15:00,64.6,58.0,30.14,ENE,64,1.0,6.0,78,0.00,,,0.00,0,weatherlink.com 1.10,2013-05-24 07:15:00,
2013-05-24 02:30:00,64.3,57.0,30.13,NNE,28,0.0,11.0,77,0.00,,,0.00,0,weatherlink.com 1.10,2013-05-24 07:30:00,
2013-05-24 02:45:00,64.0,57.0,30.14,North,360,5.0,8.0,77,0.00,,,0.00,0,weatherlink.com 1.10,2013-05-24 07:45:00,
2013-05-24 03:00:00,63.5,57.0,30.14,ENE,68,2.0,5.0,79,0.00,,,0.00,0,weatherlink.com 1.10,2013-05-24 08:00:00,
2013-05-24 03:15:00,62.8,57.0,30.14,NE,49,6.0,8.0,80,0.00,,,0.00,0,weatherlink.com 1.10,2013-05-24 08:15:00,
2013-05-24 03:30:00,62.4,56.0,30.14,NNE,33,3.0,7.0,80,0.00,,,0.00,0,weatherlink.com 1.10,2013-05-24 08:30:00,
2013-05-24 03:45:00,61.9,56.0,30.14,NNE,14,4.0,9.0,81,0.00,,,0.00,0,weatherlink.com 1.10,2013-05-24 08:45:00,
2013-05-24 04:00:00,61.4,56.0,30.15,NNE,18,4.0,7.0,81,0.00,,,0.00,0,weatherlink.com 1.10,2013-05-24 09:00:00,
2013-05-24 04:15:00,60.9,55.0,30.16,East,101,3.0,7.0,81,0.00,,,0.00,0,weatherlink.com 1.10,2013-05-24 09:15:00,
2013-05-24 04:31:00,60.4,55.0,30.16,NNE,16,3.0,8.0,81,0.00,,,0.00,0,weatherlink.com 1.10,2013-05-24 09:31:00,
2013-05-24 04:46:00,59.7,54.0,30.16,ENE,57,2.0,5.0,81,0.00,,,0.00,0,weatherlink.com 1.10,2013-05-24 09:46:00,
2013-05-24 05:01:00,59.2,53.0,30.17,ENE,63,3.0,6.0,81,0.00,,,0.00,0,weatherlink.com 1.10,2013-05-24 10:01:00,
2013-05-24 05:16:00,58.7,53.0,30.18,NE,37,6.0,7.0,82,0.00,,,0.00,0,weatherlink.com 1.10,2013-05-24 10:16:00,
2013-05-24 05:31:00,58.3,53.0,30.18,NE,50,2.0,9.0,82,0.00,,,0.00,0,weatherlink.com 1.10,2013-05-24 10:31:00,
2013-05-24 05:46:00,57.9,52.0,30.19,ENE,60,4.0,8.0,82,0.00,,,0.00,9,weatherlink.com 1.10,2013-05-24 10:46:00,
2013-05-24 06:02:00,57.4,52.0,30.20,ENE,64,8.0,13.0,81,0.00,,,0.00,16,weatherlink.com 1.10,2013-05-24 11:02:00,
2013-05-24 06:16:00,57.0,51.0,30.21,NE,40,2.0,11.0,81,0.00,,,0.00,30,weatherlink.com 1.10,2013-05-24 11:16:00,
2013-05-24 06:31:00,56.7,51.0,30.22,NNE,32,3.0,9.0,82,0.00,,,0.00,49,weatherlink.com 1.10,2013-05-24 11:31:00,
2013-05-24 06:48:00,56.8,51.0,30.24,ENE,78,4.0,10.0,81,0.00,,,0.00,88,weatherlink.com 1.10,2013-05-24 11:48:00,
2013-05-24 07:02:00,57.0,51.0,30.25,NE,43,3.0,4.0,81,0.00,,,0.00,98,weatherlink.com 1.10,2013-05-24 12:02:00,
2013-05-24 07:17:00,57.3,51.0,30.25,NNE,16,3.0,7.0,80,0.00,,,0.00,206,weatherlink.com 1.10,2013-05-24 12:17:00,
2013-05-24 07:33:00,57.8,51.0,30.26,NNW,335,4.0,10.0,79,0.00,,,0.00,229,weatherlink.com 1.10,2013-05-24 12:33:00,
2013-05-24 07:48:00,58.1,51.0,30.26,NNE,24,3.0,11.0,78,0.00,,,0.00,292,weatherlink.com 1.10,2013-05-24 12:48:00,
2013-05-24 08:03:00,58.7,52.0,30.26,ENE,69,2.0,11.0,77,0.00,,,0.00,381,weatherlink.com 1.10,2013-05-24 13:03:00,
2013-05-24 08:18:00,59.1,51.0,30.27,North,360,5.0,12.0,75,0.00,,,0.00,436,weatherlink.com 1.10,2013-05-24 13:18:00,
2013-05-24 08:35:00,59.6,51.0,30.27,NE,44,3.0,12.0,74,0.00,,,0.00,471,weatherlink.com 1.10,2013-05-24 13:35:00,
2013-05-24 08:49:00,60.1,51.0,30.27,ENE,71,5.0,9.0,73,0.00,,,0.00,424,weatherlink.com 1.10,2013-05-24 13:49:00,
2013-05-24 09:05:00,60.6,52.0,30.27,NE,56,6.0,11.0,72,0.00,,,0.00,533,weatherlink.com 1.10,2013-05-24 14:05:00,
2013-05-24 09:20:00,61.1,52.0,30.27,NNE,27,7.0,11.0,71,0.00,,,0.00,615,weatherlink.com 1.10,2013-05-24 14:20:00,
2013-05-24 09:35:00,61.9,52.0,30.27,ENE,77,8.0,11.0,69,0.00,,,0.00,679,weatherlink.com 1.10,2013-05-24 14:35:00,
2013-05-24 09:50:00,62.6,51.0,30.27,NE,37,3.0,11.0,67,0.00,,,0.00,735,weatherlink.com 1.10,2013-05-24 14:50:00,
2013-05-24 10:06:00,64.2,52.0,30.27,NNE,15,4.0,10.0,65,0.00,,,0.00,773,weatherlink.com 1.10,2013-05-24 15:06:00,
2013-05-24 10:21:00,65.3,52.0,30.27,SE,135,3.0,9.0,62,0.00,,,0.00,814,weatherlink.com 1.10,2013-05-24 15:21:00,
2013-05-24 10:36:00,65.4,51.0,30.27,NE,43,7.0,15.0,60,0.00,,,0.00,858,weatherlink.com 1.10,2013-05-24 15:36:00,
2013-05-24 10:52:00,66.2,51.0,30.27,East,88,14.0,14.0,59,0.00,,,0.00,793,weatherlink.com 1.10,2013-05-24 15:52:00,
2013-05-24 11:06:00,67.1,52.0,30.27,ENE,72,8.0,10.0,59,0.00,,,0.00,874,weatherlink.com 1.10,2013-05-24 16:06:00,
2013-05-24 11:21:00,67.2,51.0,30.27,NNE,25,5.0,13.0,56,0.00,,,0.00,932,weatherlink.com 1.10,2013-05-24 16:21:00,
2013-05-24 11:36:00,68.3,50.0,30.28,NNE,22,6.0,10.0,53,0.00,,,0.00,977,weatherlink.com 1.10,2013-05-24 16:36:00,
2013-05-24 11:53:00,68.2,50.0,30.28,NE,50,1.0,12.0,53,0.00,,,0.00,986,weatherlink.com 1.10,2013-05-24 16:53:00,
2013-05-24 12:08:00,68.5,48.0,30.28,NE,43,4.0,13.0,48,0.00,,,0.00,983,weatherlink.com 1.10,2013-05-24 17:08:00,
2013-05-24 12:23:00,69.5,50.0,30.27,ESE,102,6.0,11.0,50,0.00,,,0.00,986,weatherlink.com 1.10,2013-05-24 17:23:00,
2013-05-24 12:38:00,70.1,49.0,30.27,NE,46,8.0,12.0,48,0.00,,,0.00,997,weatherlink.com 1.10,2013-05-24 17:38:00,
2013-05-24 12:53:00,70.2,50.0,30.27,ESE,109,10.0,13.0,49,0.00,,,0.00,997,weatherlink.com 1.10,2013-05-24 17:53:00,
2013-05-24 13:08:00,70.9,51.0,30.27,ESE,105,6.0,10.0,50,0.00,,,0.00,995,weatherlink.com 1.10,2013-05-24 18:08:00,
2013-05-24 13:23:00,71.3,48.0,30.26,NE,53,3.0,9.0,44,0.00,,,0.00,991,weatherlink.com 1.10,2013-05-24 18:23:00,
2013-05-24 13:40:00,71.6,50.0,30.26,North,5,2.0,10.0,47,0.00,,,0.00,977,weatherlink.com 1.10,2013-05-24 18:40:00,
2013-05-24 13:55:00,71.9,50.0,30.25,East,90,3.0,9.0,47,0.00,,,0.00,960,weatherlink.com 1.10,2013-05-24 18:55:00,
2013-05-24 14:10:00,72.5,50.0,30.26,North,10,5.0,13.0,46,0.00,,,0.00,953,weatherlink.com 1.10,2013-05-24 19:10:00,
2013-05-24 14:24:00,72.7,50.0,30.25,East,93,3.0,10.0,45,0.00,,,0.00,937,weatherlink.com 1.10,2013-05-24 19:24:00,
2013-05-24 14:40:00,73.4,51.0,30.24,East,85,3.0,9.0,46,0.00,,,0.00,914,weatherlink.com 1.10,2013-05-24 19:40:00,
2013-05-24 14:56:00,73.4,51.0,30.25,ENE,75,7.0,10.0,46,0.00,,,0.00,891,weatherlink.com 1.10,2013-05-24 19:56:00,
2013-05-24 15:10:00,73.8,50.0,30.25,ENE,64,2.0,13.0,43,0.00,,,0.00,849,weatherlink.com 1.10,2013-05-24 20:10:00,
2013-05-24 15:25:00,74.1,52.0,30.25,North,360,6.0,9.0,47,0.00,,,0.00,810,weatherlink.com 1.10,2013-05-24 20:25:00,
2013-05-24 15:41:00,74.2,50.0,30.25,NNE,20,6.0,11.0,42,0.00,,,0.00,766,weatherlink.com 1.10,2013-05-24 20:41:00,
2013-05-24 15:57:00,74.2,52.0,30.24,North,360,1.0,9.0,46,0.00,,,0.00,708,weatherlink.com 1.10,2013-05-24 20:57:00,
2013-05-24 16:11:00,74.7,51.0,30.24,East,101,2.0,9.0,44,0.00,,,0.00,686,weatherlink.com 1.10,2013-05-24 21:11:00,
2013-05-24 16:27:00,74.9,50.0,30.24,ENE,62,8.0,10.0,41,0.00,,,0.00,640,weatherlink.com 1.10,2013-05-24 21:27:00,
2013-05-24 16:41:00,74.9,49.0,30.23,ENE,62,2.0,7.0,40,0.00,,,0.00,598,weatherlink.com 1.10,2013-05-24 21:41:00,
2013-05-24 16:56:00,75.1,50.0,30.23,ENE,67,7.0,10.0,42,0.00,,,0.00,547,weatherlink.com 1.10,2013-05-24 21:56:00,
2013-05-24 17:11:00,74.9,50.0,30.22,East,81,4.0,9.0,41,0.00,,,0.00,496,weatherlink.com 1.10,2013-05-24 22:11:00,
2013-05-24 17:27:00,74.4,49.0,30.21,NNE,29,4.0,9.0,41,0.00,,,0.00,459,weatherlink.com 1.10,2013-05-24 22:27:00,
2013-05-24 17:43:00,74.4,48.0,30.20,ESE,104,5.0,8.0,40,0.00,,,0.00,401,weatherlink.com 1.10,2013-05-24 22:43:00,
2013-05-24 17:57:00,74.0,50.0,30.20,ENE,66,3.0,11.0,43,0.00,,,0.00,325,weatherlink.com 1.10,2013-05-24 22:57:00,
2013-05-24 18:13:00,73.6,50.0,30.19,ENE,60,1.0,8.0,44,0.00,,,0.00,269,weatherlink.com 1.10,2013-05-24 23:13:00,
2013-05-24 18:28:00,73.2,49.0,30.19,ENE,57,4.0,9.0,43,0.00,,,0.00,158,weatherlink.com 1.10,2013-05-24 23:28:00,
2013-05-24 18:43:00,72.8,50.0,30.18,East,81,2.0,9.0,44,0.00,,,0.00,162,weatherlink.com 1.10,2013-05-24 23:43:00,
2013-05-24 18:58:00,72.4,51.0,30.19,NE,47,5.0,7.0,47,0.00,,,0.00,148,weatherlink.com 1.10,2013-05-24 23:58:00,
2013-05-24 19:13:00,71.9,52.0,30.20,NE,38,1.0,5.0,49,0.00,,,0.00,83,weatherlink.com 1.10,2013-05-25 00:13:00,
2013-05-24 19:29:00,71.2,52.0,30.20,NE,45,0.0,4.0,50,0.00,,,0.00,39,weatherlink.com 1.10,2013-05-25 00:29:00,
2013-05-24 19:44:00,70.2,52.0,30.20,NE,35,3.0,6.0,52,0.00,,,0.00,12,weatherlink.com 1.10,2013-05-25 00:44:00,
2013-05-24 20:00:00,69.0,52.0,30.21,NNE,16,0.0,4.0,54,0.00,,,0.00,5,weatherlink.com 1.10,2013-05-25 01:00:00,
2013-05-24 20:15:00,67.8,52.0,30.21,North,350,0.0,1.0,57,0.00,,,0.00,0,weatherlink.com 1.10,2013-05-25 01:15:00,
2013-05-24 20:29:00,66.2,52.0,30.21,North,350,0.0,1.0,60,0.00,,,0.00,0,weatherlink.com 1.10,2013-05-25 01:29:00,
2013-05-24 20:44:00,65.1,52.0,30.22,North,350,0.0,1.0,62,0.00,,,0.00,0,weatherlink.com 1.10,2013-05-25 01:44:00,
2013-05-24 20:59:00,63.9,53.0,30.22,North,350,0.0,0.0,67,0.00,,,0.00,0,weatherlink.com 1.10,2013-05-25 01:59:00,
2013-05-24 21:14:00,62.7,53.0,30.23,North,351,0.0,0.0,71,0.00,,,0.00,0,weatherlink.com 1.10,2013-05-25 02:14:00,
2013-05-24 21:29:00,61.6,54.0,30.23,North,351,0.0,1.0,77,0.00,,,0.00,0,weatherlink.com 1.10,2013-05-25 02:29:00,
2013-05-24 21:44:00,60.4,54.0,30.24,North,351,0.0,0.0,78,0.00,,,0.00,0,weatherlink.com 1.10,2013-05-25 02:44:00,
2013-05-24 21:59:00,59.4,54.0,30.25,North,351,0.0,0.0,81,0.00,,,0.00,0,weatherlink.com 1.10,2013-05-25 02:59:00,
2013-05-24 22:14:00,58.5,53.0,30.25,North,350,0.0,0.0,82,0.00,,,0.00,0,weatherlink.com 1.10,2013-05-25 03:14:00,
2013-05-24 22:29:00,57.8,53.0,30.25,North,351,0.0,0.0,84,0.00,,,0.00,0,weatherlink.com 1.10,2013-05-25 03:29:00,
2013-05-24 22:44:00,57.7,54.0,30.25,North,350,0.0,0.0,86,0.00,,,0.00,0,weatherlink.com 1.10,2013-05-25 03:44:00,
2013-05-24 22:59:00,57.6,54.0,30.24,North,351,0.0,1.0,87,0.00,,,0.00,0,weatherlink.com 1.10,2013-05-25 03:59:00,
2013-05-24 23:14:00,57.4,54.0,30.24,North,351,0.0,0.0,87,0.00,,,0.00,0,weatherlink.com 1.10,2013-05-25 04:14:00,
2013-05-24 23:29:00,56.8,52.0,30.24,North,350,0.0,2.0,84,0.00,,,0.00,0,weatherlink.com 1.10,2013-05-25 04:29:00,
2013-05-24 23:44:00,57.8,52.0,30.24,NE,46,0.0,2.0,81,0.00,,,0.00,0,weatherlink.com 1.10,2013-05-25 04:44:00,
2013-05-24 23:59:00,58.4,52.0,30.24,NE,46,0.0,1.0,79,0.00,,,0.00,0,weatherlink.com 1.10,2013-05-25 04:59:00,